Lexington Weather

Lexington, Massachusetts, USA

38°F
1/28/2023 10:20pm 
  • Lexington Conditions: Clear
  • Temperature: 37.9°F / 3.3°CColder 0.9°F than last hour.
  • Dew Point: 27.7°FIncreased 0.4°Fsince last hour.
  • Relative Humidity: 66%Increased 3.0% since last hour.
  • Wind: Calm, 10-min avg: Calm, gust: None
  • Barometer: 30.25 in Steady
  • Visibility: 10 miles
  • Rain Today: 0.00 in
  •   

Regional Weather Roundup
for Boston, MA

        
000
ASUS41 KBOX 222210
RWRBOX

REGIONAL WEATHER ROUNDUP
NATIONAL WEATHER SERVICE BOSTON/NORTON MA
500 PM EST SUN JAN 22 2023

NOTE:  "FAIR" INDICATES FEW OR NO CLOUDS BELOW 12,000 FEET WITH NO 
SIGNIFICANT WEATHER AND/OR OBSTRUCTIONS TO VISIBILITY.

MAZALL-222300-
EASTERN MASSACHUSETTS
  
CITY           SKY/WX    TMP DP  RH WIND       PRES   REMARKS
BOSTON         LGT SNOW  34  29  82 SE6       30.10F WCI  29          
BEVERLY        CLOUDY    33  28  81 CALM      30.09F                  
LAWRENCE       LGT SNOW  33  28  81 VRB3      30.11F FOG              
BEDFORD        LGT SNOW  34  30  85 CALM      30.08F FOG              
NORWOOD        LGT SNOW  35  31  85 CALM      30.09F FOG              
MARSHFIELD       N/A     37  34  87 CALM      30.08F                  
PLYMOUTH       CLOUDY    38  33  82 SE5       30.07F                  
TAUNTON          N/A    N/A N/A N/A MISG      30.06F                  
NEW BEDFORD    CLOUDY    40  38  93 SE6       30.06F FOG              
$$

MAZALL-222300-
CAPE COD AND THE ISLANDS
  
CITY           SKY/WX    TMP DP  RH WIND       PRES   REMARKS
FALMOUTH       CLOUDY    41  36  81 S12       30.09F                  
HYANNIS        CLOUDY    41  35  79 S7        30.08S                  
CHATHAM        CLOUDY    43  35  73 S8        30.11S                  
PROVINCETOWN   CLOUDY    39  34  82 S7        30.11F                  
NANTUCKET      CLOUDY    43  36  76 SE16      30.09F                  
MARTHAS VNYRD  CLOUDY    43  37  79 S13       30.08F                  
$$
 
MAZALL-222300-
CENTRAL AND WESTERN MASSACHUSETTS
  
CITY           SKY/WX    TMP DP  RH WIND       PRES   REMARKS
WORCESTER      LGT SNOW  32  29  88 CALM      30.03F FOG              
FITCHBURG      LGT SNOW  32  28  85 SE5       30.08S FOG     WCI  27  
ORANGE         LGT SNOW  32  28  85 SE6       30.05R FOG     WCI  26  
SPRINGFIELD    CLOUDY    35  28  73 CALM      30.02S                  
WESTFIELD      CLOUDY    36  27  69 CALM      30.03F                  
NORTH ADAMS    CLOUDY    34  26  72 E9        30.00F WCI  27          
PITTSFIELD     CLOUDY    32  25  75 CALM      29.97F                  
$$
 
RIZALL-222300-
RHODE ISLAND
  
CITY           SKY/WX    TMP DP  RH WIND       PRES   REMARKS
PROVIDENCE     LGT RAIN  36  34  92 N5        30.07F                  
NEWPORT        CLOUDY    40  37  89 SE9       30.05F                  
SMITHFIELD     LGT RAIN  33  31  92 NE3       30.05F FOG              
WESTERLY       CLOUDY    40  34  79 CALM      30.05F                  
$$
 
CTZALL-222300-
CONNECTICUT
  
CITY           SKY/WX    TMP DP  RH WIND       PRES   REMARKS
BRADLEY INTL   CLOUDY    38  28  67 SE6       30.03F                  
HARTFORD       CLOUDY    39  29  67 CALM      30.05F                  
BRIDGEPORT     CLOUDY    40  33  76 SE6       30.02F                  
DANBURY        CLOUDY    39  29  67 SE6       30.01F                  
GROTON         CLOUDY    42  33  70 NE3       30.03F                  
NEW HAVEN      CLOUDY    42  34  73 SE8       30.02F                  
CHESTER        CLOUDY    37  34  87 CALM      30.02F                  
MERIDEN        CLOUDY    38  29  70 CALM      30.03F                  
WILLIMANTIC    CLOUDY    38  30  73 CALM      30.04F                  
OXFORD         LGT RAIN  35  31  85 SE3       30.02F                  
$$

MEZ002-015-021-024-NHZ003-005-008-011-012-014-VTZ005-008-222300-
NORTHERN NEW ENGLAND
  
CITY           SKY/WX    TMP DP  RH WIND       PRES   REMARKS
PORTLAND ME    CLOUDY    29  24  82 W3        30.11R                  
BANGOR ME      FLURRIES  26  20  77 SE5       30.09F WCI  20          
CONCORD NH     CLOUDY    30  26  85 VRB6      30.09R WCI  24          
MANCHESTER NH  FLURRIES  32  28  85 SE5       30.08R WCI  27          
NASHUA NH      FLURRIES  32  32 100 SE3       30.10S                  
PORTSMOUTH NH  CLOUDY    31  27  83 CALM      30.09F                  
JAFFREY NH     LGT SNOW  31  27  85 S5        30.03R FOG     WCI  26  
KEENE NH       CLOUDY    32  29  88 SE3       30.05R                  
BURLINGTON VT  CLOUDY    31  24  75 S8        29.97F WCI  23          
MT. WASHINGTON FOG       12  12 100 SW32G38     N/A  VSB 0   WCI -10  
$$

NYZ052-076-222300-
EASTERN NEW YORK
  
CITY           SKY/WX    TMP DP  RH WIND       PRES   REMARKS
ALBANY         CLOUDY    36  25  64 VRB5      29.99F                  
NEW YORK CITY  LGT RAIN  41  29  62 SE9       30.00F                  
$$
 
ANZALL-222300-
MARINE OBSERVATIONS
  
STATION/POSITION TIME  TEMP    WIND        PRES    VSBY  WAVE
                       AIR SEA DIR/SP/G                  HT/PER
                 (UTC) (F)     (DEG/KT/KT) (MB)    (MI)  (FT/S)
BOSTON BUOY      2130                      1020.4S
BUZZARDS BAY     2100   42     140/ 13/ 14 1019.0F
NANTUCKET SOUND  2150   43 42  150/ 14/ 17 1019.1F         2/ 3
MASS BAY-STELLWA 2004   36 41  160/ 12/ 14 1019.0F  1 7/8  3/11
ISLE OF SHOALS   2100   35     180/ 15/ 17 1018.8F
S OF BLOCK IS    2156      44                N/A           4/ 4
$$

......................KEY.........................
  SKY/WX - SKY CONDITION/PRESENT WEATHER
  TMP    - TEMPERATURE IN FAHRENHEIT
  DWPT   - DEWPOINT IN FAHRENHEIT
  RH     - RELATIVE HUMIDITY IN PERCENT
  WIND   - DIRECTION AND SPEED IN MPH
  PRES   - MEAN SEA LEVEL PRESSURE IN INCHES OF HG
  WCI    - WIND CHILL INDEX
  VSB    - VISIBILITY IN MILES
  HX     - HEAT INDEX
  TC     - TEMPERATURE IN CELSIUS
  VRB    - VARIABLE WIND DIRECTION
  N/A    - NOT AVAILABLE
  
      

Other recent Regional Weather Roundups

Sat Jan 28, 10:10pm EST

Sat Jan 28, 9:10pm EST

Sat Jan 28, 8:10pm EST

Sat Jan 28, 7:10pm EST

Sat Jan 28, 6:10pm EST

Sat Jan 28, 5:10pm EST

Sat Jan 28, 4:10pm EST

Sat Jan 28, 3:10pm EST

Sat Jan 28, 2:10pm EST

Sat Jan 28, 1:10pm EST

Sat Jan 28, 12:10pm EST

Sat Jan 28, 11:10am EST

Sat Jan 28, 10:10am EST

Sat Jan 28, 9:10am EST

Sat Jan 28, 8:10am EST

Sat Jan 28, 7:10am EST

Sat Jan 28, 6:10am EST

Sat Jan 28, 5:10am EST

Sat Jan 28, 4:10am EST

Sat Jan 28, 3:10am EST

Sat Jan 28, 2:10am EST

Sat Jan 28, 1:10am EST

Sat Jan 28, 12:10am EST

Fri Jan 27, 11:10pm EST

Fri Jan 27, 10:10pm EST

Fri Jan 27, 9:10pm EST

Fri Jan 27, 8:10pm EST

Fri Jan 27, 7:10pm EST

Fri Jan 27, 6:10pm EST

Fri Jan 27, 5:10pm EST

Fri Jan 27, 4:10pm EST

Fri Jan 27, 3:10pm EST

Fri Jan 27, 2:10pm EST

Fri Jan 27, 1:10pm EST

Fri Jan 27, 12:10pm EST

Fri Jan 27, 11:10am EST

Fri Jan 27, 10:10am EST

Fri Jan 27, 9:10am EST

Fri Jan 27, 8:10am EST

Fri Jan 27, 7:10am EST

Fri Jan 27, 6:10am EST

Fri Jan 27, 5:10am EST

Fri Jan 27, 4:10am EST

Fri Jan 27, 3:10am EST

Fri Jan 27, 2:10am EST

Fri Jan 27, 1:10am EST

Fri Jan 27, 12:10am EST

Thu Jan 26, 11:10pm EST

Thu Jan 26, 10:10pm EST

Thu Jan 26, 9:10pm EST

Thu Jan 26, 8:10pm EST

Thu Jan 26, 7:10pm EST

Thu Jan 26, 6:10pm EST

Thu Jan 26, 5:10pm EST

Thu Jan 26, 4:10pm EST

Thu Jan 26, 3:10pm EST

Thu Jan 26, 2:10pm EST

Thu Jan 26, 1:10pm EST

Thu Jan 26, 12:10pm EST

Thu Jan 26, 11:10am EST

Thu Jan 26, 10:10am EST

Thu Jan 26, 9:10am EST

Thu Jan 26, 8:10am EST

Thu Jan 26, 7:10am EST

Thu Jan 26, 6:10am EST

Thu Jan 26, 5:10am EST

Thu Jan 26, 4:10am EST

Thu Jan 26, 3:10am EST

Thu Jan 26, 2:10am EST

Thu Jan 26, 1:10am EST

Thu Jan 26, 12:10am EST

Wed Jan 25, 11:10pm EST

Wed Jan 25, 10:10pm EST

Wed Jan 25, 9:10pm EST

Wed Jan 25, 8:10pm EST

Wed Jan 25, 7:10pm EST

Wed Jan 25, 6:10pm EST

Wed Jan 25, 5:10pm EST

Wed Jan 25, 4:10pm EST

Wed Jan 25, 3:10pm EST

Wed Jan 25, 2:10pm EST

Wed Jan 25, 1:10pm EST

Wed Jan 25, 12:10pm EST

Wed Jan 25, 11:10am EST

Wed Jan 25, 10:10am EST

Wed Jan 25, 9:10am EST

Wed Jan 25, 8:10am EST

Wed Jan 25, 7:10am EST

Wed Jan 25, 6:10am EST

Wed Jan 25, 5:10am EST

Wed Jan 25, 4:10am EST

Wed Jan 25, 3:10am EST

Wed Jan 25, 2:10am EST

Wed Jan 25, 1:10am EST

Wed Jan 25, 12:10am EST

Tue Jan 24, 11:10pm EST

Tue Jan 24, 10:10pm EST

Tue Jan 24, 9:10pm EST

Tue Jan 24, 8:10pm EST

Tue Jan 24, 7:10pm EST

Tue Jan 24, 6:10pm EST

Tue Jan 24, 5:10pm EST

Tue Jan 24, 4:10pm EST

Tue Jan 24, 3:10pm EST

Tue Jan 24, 2:10pm EST

Tue Jan 24, 1:10pm EST

Tue Jan 24, 12:10pm EST

Tue Jan 24, 11:10am EST

Tue Jan 24, 10:10am EST

Tue Jan 24, 9:10am EST

Tue Jan 24, 8:10am EST

Tue Jan 24, 7:10am EST

Tue Jan 24, 6:10am EST

Tue Jan 24, 5:10am EST

Tue Jan 24, 4:10am EST

Tue Jan 24, 3:10am EST

Tue Jan 24, 2:10am EST

Tue Jan 24, 1:10am EST

Tue Jan 24, 12:10am EST

Mon Jan 23, 11:10pm EST

Mon Jan 23, 10:10pm EST

Mon Jan 23, 9:10pm EST

Mon Jan 23, 8:10pm EST

Mon Jan 23, 7:10pm EST

Mon Jan 23, 6:10pm EST

Mon Jan 23, 5:10pm EST

Mon Jan 23, 4:10pm EST

Mon Jan 23, 3:10pm EST

Mon Jan 23, 2:10pm EST

Mon Jan 23, 1:10pm EST

Mon Jan 23, 12:10pm EST

Mon Jan 23, 11:10am EST

Mon Jan 23, 10:10am EST

Mon Jan 23, 9:10am EST

Mon Jan 23, 8:10am EST

Mon Jan 23, 7:10am EST

Mon Jan 23, 6:10am EST

Mon Jan 23, 5:10am EST

Mon Jan 23, 4:10am EST

Mon Jan 23, 3:10am EST

Mon Jan 23, 2:10am EST

Mon Jan 23, 1:10am EST

Mon Jan 23, 12:10am EST

Sun Jan 22, 11:10pm EST

Sun Jan 22, 10:10pm EST

Sun Jan 22, 9:10pm EST

Sun Jan 22, 8:10pm EST

Sun Jan 22, 7:10pm EST

Sun Jan 22, 6:10pm EST

Sun Jan 22, 4:10pm EST

Sun Jan 22, 3:10pm EST

Sun Jan 22, 2:10pm EST

Sun Jan 22, 1:10pm EST

Sun Jan 22, 12:10pm EST

Sun Jan 22, 11:10am EST

Sun Jan 22, 10:10am EST

Sun Jan 22, 9:10am EST

Sun Jan 22, 8:10am EST

Sun Jan 22, 7:10am EST

Sun Jan 22, 6:10am EST

Sun Jan 22, 5:10am EST

Sun Jan 22, 4:10am EST

Sun Jan 22, 3:10am EST

Sun Jan 22, 2:10am EST

Sun Jan 22, 1:10am EST

Sun Jan 22, 12:10am EST

Sat Jan 21, 11:10pm EST